Regional Weather Roundup
Issued by NWS Wilmington, NC

Home | Current Version | Previous Version | Text Only | Print | Product List | Glossary On
Versions: 1 2 3 4 5 6 7 8 9 10 11 12 13 14 15 16 17 18 19 20 21 22 23 24 25 26 27 28 29 30 31 32 33 34 35 36 37 38 39 40 41 42 43 44 45 46 47 48 49 50
000
ASUS42 KILM 271113
RWRILM
RWRILM
REGIONAL HOURLY WEATHER ROUNDUP
NATIONAL WEATHER SERVICE WILMINGTON NC
700 AM EDT TUE JUN 27 2017

NOTE: "FAIR" INDICATES FEW OR NO CLOUDS BELOW 12,000 FEET WITH NO
SIGNIFICANT WEATHER AND/OR OBSTRUCTIONS TO VISIBILITY.

...............WFO WILMINGTON COUNTY WARNING AREA...............

......COASTAL NC AND SC COUNTIES......

CITY           SKY/WX    TMP DP  RH WIND       PRES   REMARKS
WILMINGTON     MOSUNNY   68  66  93 CALM      30.02S
N MYRTLE BEACH CLEAR     68  64  87 NW5       30.03S
MYRTLE BEACH   PTCLDY    66  64  94 NW6       30.04

......INLAND NC AND SC COUNTIES.......

CITY           SKY/WX    TMP DP  RH WIND       PRES   REMARKS
LUMBERTON      CLOUDY    66  65  96 CALM      30.02S
ELIZABETHTOWN  NOT AVBL
WHITEVILLE     CLEAR     65  63  93 CALM      30.03R
FLORENCE       CLEAR     67  64  90 CALM      30.04S
DARLINGTON     PTCLDY    68  64  87 CALM      30.04S
KINGSTREE      FAIR      63  61  94 CALM      30.04S
HARTSVILLE     FAIR      63  61  94 CALM      30.04S
BENNETTSVILLE  FAIR      68  66  94 CALM      30.03S
CONWAY         FAIR      61  61 100 CALM      30.04S FOG
GEORGETOWN     FAIR      66  64  94 CALM      30.04S
MARION         FAIR      63  61  94 CALM      30.04R

....................REST OF NORTH CAROLINA......................

.........EASTERN NC.........

CITY           SKY/WX    TMP DP  RH WIND       PRES   REMARKS
CAPE HATTERAS  MOSUNNY   69  66  90 CALM      30.01S
JACKSONVILLE   SUNNY     64  62  93 CALM      30.03
MOREHEAD CITY  CLOUDY    73  72  96 NW6       30.02R
KENANSVILLE    MOSUNNY   63  61  94 CALM      30.03S
NEW BERN       SUNNY     67  66  97 CALM      30.03S
ELIZABETH CITY CLOUDY    69  68  96 SW3       30.02R

.........CENTRAL NC.........

CITY           SKY/WX    TMP DP  RH WIND       PRES   REMARKS
RALEIGH DURHAM MOCLDY    64  61  90 CALM      30.05R
ROCKY MOUNT    MOSUNNY   67  65  93 NW6       30.03R
ROANOKE RAPIDS NOT AVBL
FAYETTEVILLE   CLOUDY    71  62  73 W3        30.02S
HOFFMAN        MOCLDY    63  61  95 CALM      30.03S

.........WESTERN NC.........

CITY           SKY/WX    TMP DP  RH WIND       PRES   REMARKS
CHARLOTTE      MOCLDY    65  58  78 N3        30.07R
GREENSBORO     CLOUDY    64  59  83 N6        30.05S
HICKORY        NOT AVBL
BOONE          NOT AVBL
ASHEVILLE      NOT AVBL

.....................REST OF SOUTH CAROLINA.....................

.........EASTERN SC.........

CITY           SKY/WX    TMP DP  RH WIND       PRES   REMARKS
CHARLESTON     MOCLDY    71  67  87 N3        30.03S
BEAUFORT MCAS  MOCLDY    75  73  93 N3        30.02S
HILTON HEAD    MOCLDY    75  73  94 CALM      30.04R

.........CENTRAL SC.........

CITY           SKY/WX    TMP DP  RH WIND       PRES   REMARKS
COLUMBIA       CLOUDY    67  62  84 S3        30.04R
ORANGEBURG     CLEAR     65  64  97 CALM      30.04S
SUMTER SHAW    PTCLDY    67  63  86 CALM      30.02S

.........WESTERN SC.........

CITY           SKY/WX    TMP DP  RH WIND       PRES   REMARKS
GREENVILLE     NOT AVBL
ROCK HILL      PTCLDY    63  59  87 CALM      30.06S
ANDERSON       PTCLDY    63  60  90 CALM      30.05S
CLEMSON        NOT AVBL
GREENWOOD      PTCLDY    62  59  90 CALM      30.06S


...................COASTAL AND OFFSHORE REPORTS..................

................LOCAL PIERS AND NC RESERVE................


STATION/POSITION TIME  SKY/WX   TEMP    WIND        PRES    VSBY
                                AIR SEA DIR/SP/G
                 (UTC)          (F)     (DEG/KT/KT) (MB)    (MI)
JOHNY MRCER PIER 1042            71 80  290/  5/  6 1015.7R
NC RESRV MASNBRO 0945            67     270/  2     1017.0
OCEAN CREST PIER NOT AVBL
SPRINGMAID  PIER 1042                               1016.3S


................COASTAL AND OFFSHORE BUOYS................


STATION/POSITION TIME  SKY/WX   TEMP    WIND        PRES    VSBY
                                AIR SEA DIR/SP/G
                 (UTC)          (F)     (DEG/KT/KT) (MB)    (MI)
DIMNDSHOAL 41025 1050            77 81  350/  8/ 10 1016.0R
WVE H/P(F/S)=  2/ 7 SWL H/P/D(F/S/D)=  2/ 90/ 7

CAPE LOOKOUT     1100            75     350/  5/  6 1016.1R
ONSLOW BAY 41036 NOT AVBL
ONSLOW BAY 41064 1008            77 80  350/  4/  6 1016.5R
ONSLOW BAY 41159 1043               80                N/A
WVE H/P(F/S)=  2/ 7

MASNBO INL 41110 1059               79                N/A
WVE H/P(F/S)=  2/ 8

WILM HARBR 41108 NOT AVBL
27SE WRITB 41037 1008            76 80  300/  4/  8 1015.8R
FRYING PAN 41013 1100            78 80   10/  6/  8 1016.1
SUNST NRSH 41024 1008            73 79  330/  4/  8 1016.7R
CAPRS NRSH 41029 1008            84 83  360/  6/  8 1016.5S
EDISTO     41004 1050            79 81   20/  8/ 10 1016.0S
WVE H/P(F/S)=  2/ 8 SWL H/P/D(F/S/D)=  2/140/ 8



..........OFFSHORE BUOYS BEYOND 100 NM OFFSHORE...........
.....IN A TRIANGLE---HAT TO BERMUDA TO BAHAMAS TO HAT.....


STATION/POSITION TIME  SKY/WX   TEMP    WIND        PRES    VSBY
                                AIR SEA DIR/SP/G
                 (UTC)          (F)     (DEG/KT/KT) (MB)    (MI)
150E HAT   41001 1100            76 79  170/  6/  8 1016.0
W BERMUDA  41048 1100            80 81  220/ 10/ 14 1018.1
ATLANTIC S 41049 1050            79 82  160/  6/  8 1021.2S
WVE H/P(F/S)=  3/ 7 SWL H/P/D(F/S/D)=  3/340/ 7

E BAHAMAS  41046 1100            81 83  120/  8/ 12 1019.4
NE BAHAMAS 41047 1100            82 83  160/ 12/ 16 1019.0
120E CANVRL41010 1100            83 83  200/ 12/ 14 1015.9

END



USA.gov is the U.S. government's official web portal to all federal, state and local government web resources and services.